TimeCDT,TemperatureF,Dew PointF,Humidity,Sea Level PressureIn,VisibilityMPH,Wind Direction,Wind SpeedMPH,Gust SpeedMPH,PrecipitationIn,Events,Conditions,WindDirDegrees,DateUTC
12:13 AM,68.0,60.8,78,29.98,10.0,SSW,3.5,-,N/A,,Unknown,200,2013-07-25 05:13:00
12:33 AM,68.0,60.8,78,29.98,10.0,Calm,Calm,-,N/A,,Unknown,0,2013-07-25 05:33:00
12:53 AM,68.0,59.0,73,29.98,10.0,SSW,3.5,-,N/A,,Clear,210,2013-07-25 05:53:00
1:13 AM,68.0,59.0,73,29.98,10.0,Calm,Calm,-,N/A,,Mostly Cloudy,0,2013-07-25 06:13:00
1:33 AM,68.0,57.2,68,29.97,10.0,Calm,Calm,-,N/A,Thunderstorm,Unknown,0,2013-07-25 06:33:00
1:53 AM,68.0,59.0,73,29.98,5.0,Calm,Calm,-,N/A,Rain-Thunderstorm,Heavy Thunderstorms and Rain,0,2013-07-25 06:53:00
2:13 AM,64.4,60.8,88,29.97,10.0,WSW,5.8,-,N/A,,Scattered Clouds,240,2013-07-25 07:13:00
2:32 AM,64.4,60.8,88,29.96,10.0,WSW,5.8,-,N/A,,Clear,250,2013-07-25 07:32:00
2:53 AM,62.6,60.8,94,29.95,10.0,WSW,4.6,-,N/A,,Clear,240,2013-07-25 07:53:00
3:13 AM,64.4,60.8,88,29.95,10.0,SW,3.5,-,N/A,,Clear,230,2013-07-25 08:13:00
3:33 AM,64.4,62.6,94,29.96,10.0,WSW,5.8,-,N/A,Thunderstorm,Clear,240,2013-07-25 08:33:00
3:53 AM,64.4,62.6,94,29.96,10.0,WSW,3.5,-,N/A,,Scattered Clouds,240,2013-07-25 08:53:00
4:12 AM,64.4,62.6,94,29.96,10.0,WSW,3.5,-,N/A,,Clear,240,2013-07-25 09:12:00
4:33 AM,64.4,62.6,94,29.96,10.0,WSW,3.5,-,N/A,,Unknown,240,2013-07-25 09:33:00
4:53 AM,64.4,62.6,94,29.96,10.0,WSW,4.6,-,N/A,,Clear,250,2013-07-25 09:53:00
5:12 AM,64.4,62.6,94,29.96,10.0,West,4.6,-,N/A,,Clear,260,2013-07-25 10:12:00
5:33 AM,64.4,62.6,94,29.96,10.0,WSW,4.6,-,N/A,,Unknown,250,2013-07-25 10:33:00
5:53 AM,64.4,62.6,94,29.96,10.0,WSW,3.5,-,N/A,,Scattered Clouds,250,2013-07-25 10:53:00
6:12 AM,64.4,62.6,94,29.95,10.0,Calm,Calm,-,N/A,,Unknown,0,2013-07-25 11:12:00
6:33 AM,66.2,64.4,94,29.96,10.0,West,4.6,-,N/A,,Unknown,260,2013-07-25 11:33:00
6:53 AM,66.2,64.4,94,29.96,10.0,WSW,4.6,-,N/A,,Clear,250,2013-07-25 11:53:00
7:12 AM,68.0,64.4,88,29.95,10.0,Calm,Calm,-,N/A,,Clear,0,2013-07-25 12:12:00
7:33 AM,69.8,66.2,88,29.96,10.0,WSW,3.5,-,N/A,,Clear,250,2013-07-25 12:33:00
7:53 AM,69.8,66.2,88,29.97,10.0,WSW,4.6,-,N/A,,Clear,250,2013-07-25 12:53:00
8:12 AM,69.8,66.2,88,29.96,10.0,Calm,Calm,-,N/A,,Clear,0,2013-07-25 13:12:00
8:33 AM,69.8,66.2,88,29.97,10.0,WSW,3.5,-,N/A,,Clear,250,2013-07-25 13:33:00
8:53 AM,71.6,68.0,88,29.97,10.0,WSW,5.8,-,N/A,,Scattered Clouds,250,2013-07-25 13:53:00
9:12 AM,73.4,66.2,78,29.97,10.0,West,5.8,-,N/A,,Scattered Clouds,270,2013-07-25 14:12:00
9:33 AM,73.4,68.0,83,29.97,10.0,WNW,4.6,-,N/A,,Clear,290,2013-07-25 14:33:00
9:53 AM,75.2,66.2,73,29.97,10.0,West,4.6,-,N/A,,Clear,270,2013-07-25 14:53:00
10:12 AM,75.2,66.2,73,29.97,10.0,West,3.5,-,N/A,,Clear,260,2013-07-25 15:12:00
10:33 AM,75.2,68.0,78,29.96,10.0,WSW,5.8,-,N/A,,Clear,250,2013-07-25 15:33:00
10:53 AM,75.2,68.0,78,29.98,10.0,West,4.6,-,N/A,,Clear,270,2013-07-25 15:53:00
11:12 AM,73.4,68.0,83,29.99,10.0,West,5.8,-,N/A,,Clear,270,2013-07-25 16:12:00
11:33 AM,73.4,69.8,88,30.00,10.0,WSW,4.6,-,N/A,,Scattered Clouds,250,2013-07-25 16:33:00
11:53 AM,73.4,69.8,88,30.00,10.0,WSW,5.8,-,N/A,Rain,Light Rain,250,2013-07-25 16:53:00
12:12 PM,75.2,66.2,73,30.00,10.0,West,5.8,-,N/A,,Clear,260,2013-07-25 17:12:00
12:33 PM,75.2,66.2,73,30.00,10.0,West,6.9,-,N/A,Thunderstorm,Scattered Clouds,270,2013-07-25 17:33:00
12:53 PM,75.2,66.2,73,30.00,10.0,WNW,9.2,-,N/A,,Scattered Clouds,290,2013-07-25 17:53:00
1:13 PM,75.2,60.8,61,30.00,10.0,NW,8.1,16.1,N/A,,Scattered Clouds,310,2013-07-25 18:13:00
1:32 PM,75.2,64.4,69,30.00,10.0,NW,10.4,-,N/A,Rain,Light Rain,310,2013-07-25 18:32:00
1:53 PM,73.4,62.6,69,30.01,10.0,NNW,11.5,16.1,N/A,,Scattered Clouds,330,2013-07-25 18:53:00
2:13 PM,71.6,62.6,73,30.00,7.0,NNW,16.1,21.9,N/A,,Mostly Cloudy,340,2013-07-25 19:13:00
2:32 PM,71.6,62.6,73,29.99,10.0,NW,13.8,21.9,N/A,,Scattered Clouds,320,2013-07-25 19:32:00
2:53 PM,73.4,62.6,69,29.97,10.0,North,9.2,-,N/A,,Clear,360,2013-07-25 19:53:00
3:13 PM,75.2,62.6,65,29.96,10.0,North,9.2,-,N/A,,Clear,350,2013-07-25 20:13:00
3:32 PM,75.2,60.8,61,29.95,10.0,NNW,4.6,-,N/A,,Scattered Clouds,340,2013-07-25 20:32:00
3:53 PM,78.8,60.8,54,29.95,10.0,West,3.5,-,N/A,,Clear,260,2013-07-25 20:53:00
4:13 PM,78.8,60.8,54,29.95,10.0,WNW,3.5,-,N/A,,Clear,290,2013-07-25 21:13:00
4:32 PM,78.8,60.8,54,29.95,10.0,WNW,5.8,-,N/A,,Clear,300,2013-07-25 21:32:00
4:53 PM,80.6,60.8,51,29.94,10.0,WNW,8.1,-,N/A,,Clear,290,2013-07-25 21:53:00
5:13 PM,78.8,60.8,54,29.94,10.0,West,6.9,-,N/A,,Clear,280,2013-07-25 22:13:00
5:33 PM,78.8,60.8,54,29.94,10.0,West,5.8,-,N/A,,Scattered Clouds,270,2013-07-25 22:33:00
5:53 PM,78.8,62.6,57,29.94,10.0,West,8.1,-,N/A,,Scattered Clouds,260,2013-07-25 22:53:00
6:12 PM,78.8,62.6,57,29.94,10.0,West,5.8,-,N/A,,Scattered Clouds,270,2013-07-25 23:12:00
6:33 PM,78.8,62.6,57,29.94,10.0,West,5.8,-,N/A,,Scattered Clouds,280,2013-07-25 23:33:00
6:53 PM,78.8,62.6,57,29.93,10.0,West,9.2,-,N/A,,Scattered Clouds,280,2013-07-25 23:53:00
7:12 PM,77.0,62.6,61,29.93,10.0,West,5.8,-,N/A,,Mostly Cloudy,270,2013-07-26 00:12:00
7:33 PM,75.2,62.6,65,29.93,10.0,West,4.6,-,N/A,,Overcast,260,2013-07-26 00:33:00
7:53 PM,75.2,62.6,65,29.93,10.0,Calm,Calm,-,N/A,,Scattered Clouds,0,2013-07-26 00:53:00
8:12 PM,75.2,64.4,69,29.93,10.0,Calm,Calm,-,N/A,,Scattered Clouds,0,2013-07-26 01:12:00
8:33 PM,73.4,64.4,73,29.94,10.0,Calm,Calm,-,N/A,,Mostly Cloudy,0,2013-07-26 01:33:00
8:53 PM,73.4,66.2,78,29.94,10.0,Calm,Calm,-,N/A,,Scattered Clouds,0,2013-07-26 01:53:00
9:12 PM,71.6,66.2,83,29.95,10.0,Calm,Calm,-,N/A,,Scattered Clouds,0,2013-07-26 02:12:00
9:33 PM,69.8,66.2,88,29.95,10.0,Calm,Calm,-,N/A,,Scattered Clouds,0,2013-07-26 02:33:00
9:53 PM,69.8,66.2,88,29.95,10.0,Calm,Calm,-,N/A,,Scattered Clouds,0,2013-07-26 02:53:00
10:12 PM,71.6,66.2,83,29.96,10.0,West,3.5,-,N/A,Rain,Light Rain,280,2013-07-26 03:12:00
10:33 PM,69.8,66.2,88,29.97,7.0,West,8.1,-,N/A,Rain,Heavy Rain,260,2013-07-26 03:33:00
10:53 PM,66.2,64.4,94,29.96,7.0,SSW,4.6,-,N/A,Rain-Thunderstorm,Light Thunderstorms and Rain,210,2013-07-26 03:53:00
11:12 PM,66.2,64.4,94,29.96,10.0,Calm,Calm,-,N/A,,Scattered Clouds,0,2013-07-26 04:12:00
11:33 PM,64.4,64.4,100,29.96,10.0,Calm,Calm,-,N/A,,Scattered Clouds,0,2013-07-26 04:33:00
11:53 PM,66.2,64.4,94,29.96,10.0,Calm,Calm,-,N/A,,Unknown,0,2013-07-26 04:53:00